[[{"header":{"parameterUnit":"m.s-1","parameterCategory":1,"la1":30.2991,"la2":30.254,"lo1":-89.0895,"lo2":-89.0444,"dy":0.0017,"dx":0.0017,"nx":28,"ny":28,"refTime":"2024-08-03T03:00:00:Z","depth":0,"parameterNumber":2,"parameterNumberName":"U-component_of_WINDS"},"data":[0,0,0,0,0,0,0,0,0,0,0,0,0,0,0,0,0,0,0,0,0,0,0,0,0,0,0,0,0,0,0,0,0,0,0,0,0,0,0,0,0,0,0,0,0,0,0,0,0,0,0,0,0,0,0,0,0,0,-1.7198,-1.7196,0,-1.704,-1.7039,-1.7037,-1.6909,-1.6908,-1.6907,-1.6905,-1.6744,-1.6741,-1.6738,0,0,0,0,0,0,0,0,0,0,0,0,0,-1.739,-1.7387,-1.7198,-1.7196,-1.7194,-1.7041,-1.7038,-1.7036,-1.6909,-1.6908,-1.6906,-1.6905,-1.6745,-1.6742,-1.6738,0,0,0,0,0,0,0,0,0,0,0,0,0,-1.7277,-1.7386,-1.7198,-1.7112,-1.7103,-1.7041,-1.7038,-1.7036,-1.691,-1.6908,-1.6906,-1.6904,-1.6747,-1.6742,-1.6738,-1.6748,0,0,-1.6723,-1.6721,0,0,0,0,0,0,0,0,-1.7283,-1.727,-1.7127,-1.7118,-1.7107,-1.6992,-1.7047,-1.6939,-1.691,-1.6983,-1.6905,-1.6903,-1.6828,-1.6817,-1.6792,-1.6741,-1.6734,-1.6723,-1.672,-1.6718,-1.6717,0,0,0,0,0,0,0,-1.7291,-1.7276,-1.7135,-1.7125,-1.7113,-1.7082,-1.7064,-1.7026,-1.6919,-1.6977,-1.6967,-1.695,-1.6823,-1.6797,-1.6787,-1.6732,-1.6723,-1.6719,-1.6716,-1.6714,-1.6683,-1.6685,0,0,0,0,0,0,-1.7312,-1.7283,-1.714,-1.7131,-1.7192,-1.708,-1.7059,-1.7031,-1.6919,-1.69,-1.6952,-1.6945,-1.6805,-1.6793,-1.6781,-1.6787,-1.6718,-1.6714,-1.6711,-1.6681,-1.6684,-1.6686,0,0,0,0,0,0,-1.7317,-1.7301,-1.7147,-1.7204,-1.7182,-1.7079,-1.7048,-1.7029,-1.7003,-1.69,-1.688,-1.6945,-1.6803,-1.6787,-1.6758,-1.678,-1.6712,-1.6708,-1.6679,-1.6682,-1.6685,-1.6799,0,0,0,0,0,0,-1.7323,-1.7303,-1.7306,-1.7205,-1.718,-1.7126,-1.7049,-1.7028,-1.6995,-1.6984,-1.6888,-1.687,-1.6801,-1.6765,-1.6753,-1.6772,-1.6704,-1.6677,-1.668,-1.6684,-1.6793,-1.6806,-1.6817,0,0,0,0,0,-1.733,-1.7344,-1.7307,-1.729,-1.7181,-1.7128,-1.7113,-1.7032,-1.6997,-1.7,-1.6934,-1.6873,-1.678,-1.6763,-1.6749,-1.6767,-1.6675,-1.6679,-1.6684,-1.6788,-1.6803,-1.6817,0,0,0,0,0,0,-1.745,-1.7329,-1.7286,-1.7268,-1.7209,-1.7106,-1.7106,-1.7051,-1.7001,-1.6993,-1.6895,-1.6874,-1.6856,-1.6808,-1.6792,-1.6772,-1.6719,-1.6721,-1.6804,-1.6818,-1.6829,-1.6841,-1.67,0,0,0,0,0,-1.7474,-1.7441,-1.7337,-1.7331,-1.7304,-1.7211,-1.7185,-1.7128,-1.7063,-1.7037,-1.6969,-1.6908,-1.6865,-1.6839,-1.6793,-1.6786,-1.6764,-1.6791,-1.6803,-1.6813,-1.6816,-1.681,-1.6821,-1.67,-1.67,-1.67,0,0,-1.7524,-1.7454,-1.7439,-1.7354,-1.7301,-1.7269,-1.7191,-1.716,-1.7135,-1.7032,-1.7,-1.6949,-1.6875,-1.6857,-1.6845,-1.6816,-1.6844,-1.6819,-1.6828,-1.6824,-1.6815,-1.6827,-1.6837,-1.6703,-1.6702,-1.6702,0,0,-1.7598,-1.7542,-1.7531,-1.748,-1.7402,-1.734,-1.7338,-1.7244,-1.7206,-1.7172,-1.7095,-1.7064,-1.6992,-1.6942,-1.6908,-1.6966,-1.6909,-1.6954,-1.7016,-1.7011,-1.702,-1.7028,-1.705,-1.7059,-1.6957,-1.6957,-1.6957,0,-1.7669,-1.7618,-1.7532,-1.7507,-1.7472,-1.7378,-1.7367,-1.7322,-1.7233,-1.7212,-1.718,-1.7088,-1.7032,-1.7002,-1.7016,-1.6991,-1.6986,-1.6964,-1.7026,-1.7033,-1.7039,-1.7059,-1.7067,-1.6963,-1.6963,-1.6962,-1.6961,0,-1.771,-1.7676,-1.7677,-1.7594,-1.756,-1.7542,-1.7454,-1.7429,-1.7376,-1.7318,-1.7286,-1.7215,-1.7154,-1.7143,-1.709,-1.7106,-1.709,-1.7044,-1.6989,-1.7058,-1.7075,-1.7082,-1.6972,-1.697,-1.6968,-1.6967,0,0,-1.7854,-1.7726,-1.7727,-1.7689,-1.7597,-1.7569,-1.7548,-1.7488,-1.747,-1.7412,-1.7392,-1.7334,-1.7291,-1.7252,-1.7193,-1.7189,-1.7241,-1.7143,-1.714,-1.7164,-1.7255,-1.7291,-1.7301,-1.7203,-1.7204,-1.7205,-1.7262,0,-1.7914,-1.787,-1.7793,-1.7773,-1.7741,-1.7652,-1.7633,-1.7575,-1.7521,-1.7486,-1.7426,-1.7387,-1.7332,-1.7308,-1.73,-1.7237,-1.7258,-1.7231,-1.7184,-1.7183,-1.7205,-1.731,-1.7347,-1.7404,-1.7268,-1.7269,-1.7269,0,-1.7978,-1.7926,-1.7904,-1.7816,-1.7799,-1.7784,-1.7724,-1.7692,-1.7625,-1.7585,-1.7543,-1.7479,-1.7453,-1.7403,-1.7366,-1.7349,-1.7325,-1.7291,-1.7292,-1.7284,-1.7231,-1.7306,-1.742,-1.743,-1.7279,-1.7278,-1.7277,0,-1.8086,-1.8011,-1.7988,-1.7958,-1.7854,-1.7846,-1.7802,-1.7733,-1.7703,-1.7651,-1.7631,-1.7577,-1.7547,-1.7507,-1.7431,-1.7401,-1.7402,-1.7346,-1.7369,-1.7372,-1.7373,-1.7374,-1.7487,-1.7358,-1.7358,-1.7358,-1.7358,0,-1.8161,-1.8151,-1.8036,-1.8022,-1.8009,-1.7921,-1.791,-1.7858,-1.7798,-1.7773,-1.7692,-1.7671,-1.7571,-1.7538,-1.7478,-1.7457,-1.7444,-1.7412,-1.7397,-1.742,-1.7424,-1.7403,-1.7397,-1.736,-1.7359,-1.7359,-1.7359,0,-1.828,-1.8202,-1.8171,-1.8076,-1.8052,-1.8046,-1.7965,-1.7948,-1.789,-1.7859,-1.7847,-1.7756,-1.7713,-1.7633,-1.7567,-1.7527,-1.7519,-1.7491,-1.7542,-1.7532,-1.7561,-1.756,-1.7664,-1.7673,-1.7539,-1.7541,-1.7542,0,-1.8333,-1.8323,-1.8227,-1.8205,-1.8164,-1.8129,-1.8098,-1.8012,-1.7983,-1.7907,-1.7901,-1.7852,-1.7808,-1.7744,-1.7672,-1.7622,-1.7593,-1.7633,-1.7584,-1.7609,-1.7594,-1.7596,-1.7595,-1.7644,-1.7646,-1.7647,-1.7648,0,-1.8436,-1.8398,-1.8357,-1.8303,-1.8268,-1.8221,-1.817,-1.8157,-1.8059,-1.8031,-1.7986,-1.7953,-1.7887,-1.7839,-1.7779,-1.7734,-1.7676,-1.7664,-1.7667,-1.7691,-1.7721,-1.7706,-1.7572,-1.7662,-1.7661,-1.766,-1.7659,-1.7658,-1.8523,-1.8511,-1.8442,-1.8399,-1.8352,-1.8307,-1.8287,-1.8227,-1.8188,-1.8128,-1.8079,-1.8039,-1.7974,-1.7887,-1.7846,-1.7814,-1.7786,-1.779,-1.7791,-1.7793,-1.7803,-1.7726,-1.7803,-1.7802,-1.7802,-1.7801,-1.7801,0,-1.8622,-1.8574,-1.8536,-1.8467,-1.8434,-1.8382,-1.8323,-1.8299,-1.8265,-1.8208,-1.8168,-1.8118,-1.8072,-1.7997,-1.7945,-1.7934,-1.7906,-1.7924,-1.7924,-1.7915,-1.7831,-1.7834,-1.7948,-1.7947,-1.7947,-1.7947,-1.7947,-1.7947,-1.867,-1.8647,-1.8602,-1.8556,-1.8507,-1.8467,-1.8439,-1.8397,-1.8352,-1.8299,-1.8261,-1.8213,-1.8149,-1.8093,-1.8049,-1.8028,-1.8014,-1.804,-1.8011,-1.7934,-1.792,-1.7907,-1.791,-1.8037,-1.8038,-1.8097,-1.8098,-1.8099]},{"header":{"parameterUnit":"m.s-1","parameterCategory":1,"la1":30.2991,"la2":30.254,"lo1":-89.0895,"lo2":-89.0444,"dy":0.0017,"dx":0.0017,"nx":28,"ny":28,"refTime":"2024-08-03T03:00:00:Z","depth":0,"parameterNumber":3,"parameterNumberName":"V-component_of_WINDS"},"data":[0,0,0,0,0,0,0,0,0,0,0,0,0,0,0,0,0,0,0,0,0,0,0,0,0,0,0,0,0,0,0,0,0,0,0,0,0,0,0,0,0,0,0,0,0,0,0,0,0,0,0,0,0,0,0,0,0,0,1.3356,1.3356,0,1.3364,1.3365,1.3365,1.3387,1.3388,1.3388,1.3389,1.3396,1.3396,1.3396,0,0,0,0,0,0,0,0,0,0,0,0,0,1.3359,1.3359,1.3356,1.3356,1.3356,1.3364,1.3365,1.3365,1.3387,1.3388,1.3388,1.3389,1.3397,1.3396,1.3396,0,0,0,0,0,0,0,0,0,0,0,0,0,1.3362,1.3359,1.3356,1.3369,1.337,1.3364,1.3365,1.3365,1.3387,1.3388,1.3389,1.3389,1.3397,1.3396,1.3396,1.3379,0,0,1.3395,1.3395,0,0,0,0,0,0,0,0,1.3361,1.3361,1.3367,1.3368,1.3369,1.3376,1.3368,1.3369,1.3387,1.338,1.3389,1.339,1.3389,1.3389,1.3389,1.3379,1.338,1.3395,1.3394,1.3394,1.3394,0,0,0,0,0,0,0,1.3361,1.3361,1.3359,1.3367,1.3368,1.3374,1.3375,1.3369,1.338,1.3381,1.3383,1.3383,1.339,1.3389,1.3389,1.338,1.3395,1.3394,1.3394,1.3394,1.3355,1.3354,0,0,0,0,0,0,1.3359,1.3361,1.3359,1.336,1.3367,1.3373,1.3374,1.3373,1.3381,1.3382,1.3383,1.3385,1.339,1.339,1.339,1.3369,1.3394,1.3394,1.3394,1.3356,1.3355,1.3354,0,0,0,0,0,0,1.3359,1.3359,1.3359,1.3361,1.3361,1.3372,1.337,1.3373,1.3372,1.3382,1.3384,1.338,1.339,1.339,1.3381,1.337,1.3394,1.3393,1.3357,1.3355,1.3354,1.3328,0,0,0,0,0,0,1.3359,1.3359,1.3353,1.336,1.3361,1.335,1.337,1.3372,1.3372,1.3374,1.338,1.3382,1.3391,1.3382,1.3381,1.337,1.3393,1.3358,1.3356,1.3355,1.333,1.3326,1.3323,0,0,0,0,0,1.3359,1.3345,1.3352,1.3352,1.3353,1.3349,1.335,1.336,1.3371,1.3364,1.337,1.3382,1.3372,1.338,1.338,1.3368,1.3358,1.3357,1.3355,1.3332,1.3327,1.3323,0,0,0,0,0,0,1.3335,1.3346,1.3354,1.3342,1.3345,1.3353,1.3345,1.3355,1.3355,1.3357,1.337,1.3371,1.336,1.3364,1.3373,1.3352,1.3367,1.3365,1.3349,1.3345,1.3341,1.334,1.3393,0,0,0,0,0,1.3329,1.3325,1.3335,1.3323,1.3324,1.3334,1.3333,1.3341,1.3344,1.3345,1.3351,1.3353,1.335,1.3348,1.3346,1.3331,1.3332,1.3323,1.3319,1.3316,1.3314,1.3305,1.33,1.3348,1.3348,1.3348,0,0,1.3315,1.332,1.3317,1.3318,1.3321,1.3316,1.3335,1.3329,1.3326,1.3345,1.3336,1.334,1.3343,1.3331,1.3325,1.3333,1.3301,1.3314,1.3312,1.3311,1.3302,1.3298,1.3294,1.3347,1.3347,1.3347,0,0,1.3286,1.3291,1.3281,1.3283,1.3288,1.3295,1.3292,1.33,1.3303,1.3295,1.3308,1.3304,1.33,1.3301,1.3301,1.3273,1.3283,1.3272,1.3253,1.3244,1.324,1.3237,1.3225,1.3221,1.327,1.327,1.327,0,1.3268,1.3261,1.3274,1.3267,1.3267,1.3284,1.3274,1.3276,1.3279,1.3278,1.3287,1.3281,1.3285,1.3272,1.3265,1.3265,1.3262,1.3271,1.324,1.3236,1.3233,1.3222,1.3218,1.3269,1.3269,1.3269,1.3269,0,1.3238,1.3233,1.3225,1.3227,1.3226,1.3218,1.3229,1.3226,1.3235,1.3241,1.3231,1.3237,1.3235,1.3234,1.3242,1.3222,1.3226,1.3237,1.3252,1.3227,1.3217,1.3213,1.3267,1.3267,1.3268,1.3268,0,0,1.3193,1.3203,1.32,1.32,1.3207,1.3203,1.3195,1.3194,1.3191,1.3193,1.3186,1.3181,1.3192,1.3192,1.32,1.3193,1.3168,1.3205,1.3205,1.3196,1.3144,1.3134,1.3129,1.3176,1.3175,1.3175,1.3143,0,1.3165,1.3151,1.3163,1.3147,1.3142,1.3159,1.3152,1.3154,1.316,1.3156,1.3163,1.3159,1.3174,1.3173,1.3167,1.3173,1.3158,1.3175,1.3168,1.3167,1.3164,1.3124,1.3114,1.3084,1.314,1.3139,1.3139,0,1.3129,1.3129,1.3113,1.3119,1.3118,1.3111,1.3111,1.3108,1.3111,1.3115,1.3116,1.3126,1.3118,1.3135,1.3123,1.3135,1.3133,1.3135,1.3134,1.3132,1.315,1.3119,1.3075,1.307,1.3133,1.3133,1.3134,0,1.3096,1.3092,1.3081,1.3082,1.309,1.3084,1.3087,1.3092,1.309,1.309,1.3089,1.3088,1.3087,1.3085,1.3095,1.3107,1.3082,1.31,1.3084,1.3084,1.3076,1.3076,1.3029,1.3079,1.3079,1.3079,1.3079,0,1.3061,1.305,1.3066,1.3059,1.3047,1.3061,1.3048,1.3053,1.3057,1.3051,1.3066,1.306,1.3074,1.307,1.3078,1.3066,1.3066,1.3068,1.307,1.3066,1.3065,1.3063,1.3064,1.3078,1.3078,1.3078,1.3078,0,1.3021,1.3031,1.302,1.3029,1.3031,1.3021,1.3028,1.3022,1.3029,1.3021,1.302,1.3031,1.3026,1.3037,1.3034,1.3039,1.3021,1.3028,1.302,1.3021,1.3004,1.3005,1.2952,1.2945,1.3001,1.3001,1.3,0,1.2997,1.2989,1.2996,1.2993,1.2995,1.2991,1.2989,1.3003,1.3,1.3003,1.2996,1.2993,1.2991,1.2982,1.2989,1.2987,1.2992,1.2974,1.2991,1.2987,1.2989,1.2988,1.2987,1.2969,1.2969,1.2968,1.2968,0,1.2953,1.2959,1.2956,1.2955,1.2952,1.2952,1.2953,1.295,1.2964,1.296,1.2956,1.2954,1.2951,1.2947,1.2946,1.2949,1.2959,1.2962,1.2958,1.2952,1.2947,1.2947,1.3008,1.2963,1.2963,1.2964,1.2964,1.2964,1.2919,1.2911,1.2915,1.2911,1.2914,1.2914,1.2908,1.2915,1.2911,1.2909,1.2918,1.2911,1.2914,1.2914,1.2916,1.291,1.2918,1.2913,1.2911,1.2909,1.2905,1.295,1.291,1.291,1.291,1.2911,1.2911,0,1.2873,1.2877,1.2873,1.2874,1.2871,1.2883,1.2884,1.288,1.2874,1.2877,1.2874,1.2868,1.2864,1.2872,1.2869,1.2863,1.2868,1.2861,1.286,1.286,1.2899,1.2902,1.2857,1.2857,1.2857,1.2857,1.2857,1.2857,1.2849,1.2837,1.2843,1.2832,1.2836,1.2829,1.2829,1.2829,1.2831,1.2824,1.282,1.2826,1.2829,1.2827,1.2824,1.2826,1.2823,1.2814,1.2818,1.2853,1.2858,1.2863,1.2866,1.2814,1.2814,1.278,1.2779,1.2779]}]]